When you browse on this site, cookies collect data to enhance your experience and personalize the content and advertising you see.
Visit our Privacy Policy to learn more. By continuing to use the site, you agree to this use of cookies and data.
  • In Portugal
  • List of Countries
  • For 7 days
  • Water Temperature
  • Satellite Maps
  • Weather Map
  • Weather Widgets
  • user-avatar
    Login

    Hourly Weather Granowo

    Today, 10 December, Monday

    Time Temperature Precipitation Wind Pressure Humidity
    00:00 +4°C° 0.2 mm 4 mps 732 mmHg 90%
    01:00 +4°C° 0.2 mm 4 mps 732 mmHg 90%
    02:00 +3°C° 0.2 mm 5 mps 733 mmHg 85%
    03:00 +2°C° 0.2 mm 6 mps 734 mmHg 80%
    04:00 +2°C° 0.2 mm 6 mps 734 mmHg 75%
    05:00 +2°C° 0 mm 6 mps 735 mmHg 76%
    06:00 +1°C° 0 mm 5 mps 735 mmHg 77%
    07:00 +1°C° 0 mm 5 mps 735 mmHg 79%
    08:00 +1°C° 0 mm 5 mps 736 mmHg 76%
    09:00 +2°C° 0 mm 6 mps 737 mmHg 74%
    10:00 +2°C° 0 mm 6 mps 737 mmHg 71%
    11:00 +2°C° 0.1 mm 6 mps 737 mmHg 69%
    12:00 +2°C° 0.1 mm 6 mps 738 mmHg 66%
    13:00 +3°C° 0.1 mm 6 mps 738 mmHg 63%
    14:00 +2°C° 0 mm 6 mps 738 mmHg 66%
    15:00 +2°C° 0 mm 5 mps 738 mmHg 69%
    16:00 +1°C° 0 mm 5 mps 738 mmHg 72%
    17:00 +1°C° 0 mm 5 mps 738 mmHg 74%
    18:00 0°C° 0 mm 4 mps 739 mmHg 77%
    19:00 0°C° 0 mm 4 mps 739 mmHg 79%
    20:00 0°C° 0 mm 4 mps 739 mmHg 80%
    21:00 0°C° 0 mm 4 mps 739 mmHg 82%
    22:00 0°C° 0 mm 4 mps 739 mmHg 83%
    23:00 0°C° 0.2 mm 4 mps 739 mmHg 84%

    Tomorrow, 11 December, Tuesday

    Time Temperature Precipitation Wind Pressure Humidity
    00:00 0°C° 0.2 mm 4 mps 739 mmHg 85%
    01:00 +1°C° 0.2 mm 3 mps 739 mmHg 85%
    02:00 +1°C° 0.3 mm 3 mps 739 mmHg 87%
    03:00 +1°C° 0.3 mm 3 mps 739 mmHg 88%
    04:00 +2°C° 0.3 mm 2 mps 739 mmHg 90%
    05:00 +2°C° 0.1 mm 2 mps 739 mmHg 91%
    06:00 +2°C° 0.1 mm 2 mps 739 mmHg 92%
    07:00 +2°C° 0.1 mm 2 mps 740 mmHg 93%
    08:00 +2°C° 0 mm 2 mps 740 mmHg 92%
    09:00 +2°C° 0 mm 2 mps 741 mmHg 92%
    10:00 +2°C° 0 mm 2 mps 742 mmHg 91%
    11:00 +2°C° 0 mm 2 mps 742 mmHg 89%
    12:00 +1°C° 0 mm 3 mps 742 mmHg 87%
    13:00 +2°C° 0 mm 3 mps 743 mmHg 85%
    14:00 +1°C° 0 mm 3 mps 743 mmHg 87%
    15:00 +1°C° 0 mm 3 mps 744 mmHg 88%
    16:00 0°C° 0 mm 3 mps 745 mmHg 89%
    17:00 +1°C° 0 mm 2 mps 745 mmHg 90%
    18:00 +1°C° 0 mm 2 mps 746 mmHg 91%
    19:00 -1°C° 0 mm 2 mps 746 mmHg 92%
    20:00 -1°C° 0 mm 2 mps 746 mmHg 93%
    21:00 -1°C° 0 mm 2 mps 747 mmHg 93%
    22:00 -1°C° 0 mm 2 mps 747 mmHg 93%
    23:00 -1°C° 0 mm 2 mps 748 mmHg 93%

    Day after tomorrow, 12 December, Wednesday

    Time Temperature Precipitation Wind Pressure Humidity
    00:00 -1°C° 0 mm 2 mps 748 mmHg 93%
    01:00 -1°C° 0 mm 2 mps 749 mmHg 93%
    02:00 -1°C° 0 mm 2 mps 749 mmHg 92%
    03:00 +1°C° 0 mm 1 mps 749 mmHg 92%
    04:00 +1°C° 0 mm 1 mps 749 mmHg 92%
    05:00 +1°C° 0.2 mm 1 mps 750 mmHg 92%
    06:00 +1°C° 0.2 mm 1 mps 750 mmHg 92%
    07:00 +2°C° 0.2 mm 1 mps 750 mmHg 91%
    08:00 +2°C° 0.2 mm 1 mps 751 mmHg 91%
    09:00 +2°C° 0.2 mm 1 mps 751 mmHg 91%
    10:00 +2°C° 0.2 mm 1 mps 751 mmHg 90%
    11:00 +2°C° 0 mm 1 mps 751 mmHg 89%
    12:00 +3°C° 0 mm 1 mps 751 mmHg 88%
    13:00 +3°C° 0 mm 1 mps 751 mmHg 86%
    14:00 +2°C° 0 mm 1 mps 751 mmHg 89%
    15:00 +2°C° 0 mm 1 mps 751 mmHg 91%
    16:00 +1°C° 0 mm 1 mps 752 mmHg 94%
    17:00 -1°C° 0 mm 2 mps 752 mmHg 94%
    18:00 -1°C° 0 mm 2 mps 752 mmHg 94%
    19:00 -2°C° 0 mm 2 mps 752 mmHg 95%
    20:00 -2°C° 0 mm 2 mps 752 mmHg 95%
    21:00 -2°C° 0 mm 2 mps 753 mmHg 95%
    22:00 -2°C° 0 mm 2 mps 753 mmHg 95%
    23:00 -1°C° 0 mm 2 mps 753 mmHg 94%

    13 December, Thursday

    Time Temperature Precipitation Wind Pressure Humidity
    00:00 -1°C° 0 mm 2 mps 753 mmHg 93%
    01:00 -1°C° 0 mm 2 mps 753 mmHg 92%
    02:00 -2°C° 0 mm 2 mps 753 mmHg 93%
    03:00 -2°C° 0 mm 2 mps 753 mmHg 94%
    04:00 -2°C° 0 mm 2 mps 753 mmHg 94%
    05:00 -2°C° 0 mm 2 mps 753 mmHg 94%
    06:00 -2°C° 0 mm 2 mps 753 mmHg 94%
    07:00 -2°C° 0 mm 2 mps 753 mmHg 94%
    08:00 -2°C° 0 mm 2 mps 753 mmHg 92%
    09:00 -2°C° 0 mm 2 mps 753 mmHg 89%
    10:00 -1°C° 0 mm 2 mps 753 mmHg 87%
    11:00 -1°C° 0 mm 2 mps 753 mmHg 85%
    12:00 -1°C° 0 mm 2 mps 752 mmHg 83%
    13:00 -1°C° 0 mm 2 mps 752 mmHg 81%
    14:00 -1°C° 0 mm 2 mps 752 mmHg 83%
    15:00 +1°C° 0 mm 1 mps 752 mmHg 85%
    16:00 +1°C° 0 mm 1 mps 751 mmHg 86%
    17:00 0°C° 0 mm 1 mps 751 mmHg 87%
    18:00 0°C° 0 mm 1 mps 751 mmHg 87%
    19:00 -2°C° 0 mm 2 mps 751 mmHg 88%
    20:00 -2°C° 0 mm 2 mps 751 mmHg 88%
    21:00 -2°C° 0 mm 2 mps 751 mmHg 89%
    22:00 -2°C° 0 mm 2 mps 751 mmHg 89%
    23:00 -2°C° 0 mm 2 mps 751 mmHg 89%

    14 December, Friday

    Time Temperature Precipitation Wind Pressure Humidity
    00:00 -2°C° 0 mm 2 mps 751 mmHg 89%
    01:00 -2°C° 0 mm 2 mps 751 mmHg 89%
    02:00 -2°C° 0 mm 2 mps 751 mmHg 90%
    03:00 -3°C° 0 mm 2 mps 751 mmHg 90%
    04:00 -3°C° 0 mm 2 mps 751 mmHg 91%
    05:00 -3°C° 0 mm 2 mps 751 mmHg 90%
    06:00 -3°C° 0 mm 2 mps 751 mmHg 90%
    07:00 -3°C° 0 mm 2 mps 752 mmHg 89%
    08:00 -2°C° 0 mm 2 mps 752 mmHg 88%
    09:00 -2°C° 0 mm 2 mps 752 mmHg 86%
    10:00 -2°C° 0 mm 2 mps 752 mmHg 85%
    11:00 -2°C° 0 mm 2 mps 752 mmHg 84%
    12:00 -1°C° 0 mm 2 mps 752 mmHg 83%
    13:00 -1°C° 0 mm 2 mps 752 mmHg 82%
    14:00 -1°C° 0 mm 2 mps 752 mmHg 84%
    15:00 -2°C° 0 mm 2 mps 752 mmHg 86%
    16:00 -2°C° 0 mm 2 mps 753 mmHg 88%
    17:00 -2°C° 0 mm 2 mps 753 mmHg 89%
    18:00 -2°C° 0 mm 3 mps 753 mmHg 89%
    19:00 -2°C° 0 mm 3 mps 753 mmHg 89%
    20:00 -2°C° 0 mm 3 mps 753 mmHg 89%
    21:00 -2°C° 0 mm 3 mps 753 mmHg 88%
    22:00 -2°C° 0 mm 3 mps 753 mmHg 88%
    23:00 -2°C° 0 mm 3 mps 753 mmHg 88%

    15 December, Saturday

    Time Temperature Precipitation Wind Pressure Humidity
    00:00 -4°C° 0 mm 3 mps 753 mmHg 88%
    01:00 -3°C° 0 mm 2 mps 753 mmHg 88%
    02:00 -3°C° 0 mm 2 mps 753 mmHg 88%
    03:00 -3°C° 0 mm 2 mps 753 mmHg 88%
    04:00 -3°C° 0 mm 2 mps 753 mmHg 89%
    05:00 -3°C° 0 mm 2 mps 753 mmHg 89%
    06:00 -3°C° 0 mm 2 mps 754 mmHg 90%
    07:00 -4°C° 0 mm 3 mps 754 mmHg 91%
    08:00 -4°C° 0 mm 3 mps 754 mmHg 89%
    09:00 -2°C° 0 mm 3 mps 754 mmHg 88%
    10:00 -2°C° 0 mm 3 mps 755 mmHg 86%
    11:00 -2°C° 0 mm 3 mps 755 mmHg 84%
    12:00 -2°C° 0 mm 3 mps 755 mmHg 82%
    13:00 -2°C° 0 mm 3 mps 755 mmHg 79%
    14:00 -2°C° 0 mm 3 mps 755 mmHg 80%
    15:00 -2°C° 0 mm 2 mps 755 mmHg 81%
    16:00 -2°C° 0 mm 2 mps 755 mmHg 81%
    17:00 -2°C° 0 mm 2 mps 755 mmHg 83%
    18:00 -2°C° 0 mm 2 mps 755 mmHg 84%
    19:00 -3°C° 0 mm 2 mps 755 mmHg 85%
    20:00 -3°C° 0 mm 2 mps 755 mmHg 86%
    21:00 -3°C° 0 mm 2 mps 755 mmHg 88%
    22:00 -4°C° 0 mm 2 mps 755 mmHg 89%
    23:00 -4°C° 0 mm 2 mps 754 mmHg 90%
    Show more